Time,TemperatureF,DewpointF,PressureIn,WindDirection,WindDirectionDegrees,WindSpeedMPH,WindSpeedGustMPH,Humidity,HourlyPrecipIn,Conditions,Clouds,dailyrainin,SoftwareType,DateUTC
2013-11-25 00:09:00,26.6,4.5,30.29,NE,45,0.0,-999.0,38,-99.99,,,0.00,Acu-Link.com,2013-11-25 05:09:00,
2013-11-25 00:25:00,26.6,5.6,30.29,NNE,22,0.0,-999.0,40,-99.99,,,0.00,Acu-Link.com,2013-11-25 05:25:00,
2013-11-25 00:40:00,26.6,5.6,30.29,East,90,0.0,-999.0,40,-99.99,,,0.00,Acu-Link.com,2013-11-25 05:40:00,
2013-11-25 00:55:00,24.8,6.0,30.29,ENE,67,0.0,-999.0,44,-99.99,,,0.00,Acu-Link.com,2013-11-25 05:55:00,
2013-11-25 01:10:00,26.6,7.7,30.29,WNW,292,0.0,-999.0,44,-99.99,,,0.00,Acu-Link.com,2013-11-25 06:10:00,
2013-11-25 01:26:00,24.8,5.5,30.29,NW,315,0.0,-999.0,43,-99.99,,,0.00,Acu-Link.com,2013-11-25 06:26:00,
2013-11-25 01:41:00,24.8,5.5,30.30,WNW,292,2.0,-999.0,43,-99.99,,,0.00,Acu-Link.com,2013-11-25 06:41:00,
2013-11-25 01:56:00,24.8,5.5,30.29,NNW,337,0.0,-999.0,43,-99.99,,,0.00,Acu-Link.com,2013-11-25 06:56:00,
2013-11-25 02:11:00,23.0,6.3,30.29,ESE,112,0.0,-999.0,48,-99.99,,,0.00,Acu-Link.com,2013-11-25 07:11:00,
2013-11-25 02:26:00,23.0,7.2,30.29,SE,135,0.0,-999.0,50,-99.99,,,0.00,Acu-Link.com,2013-11-25 07:26:00,
2013-11-25 02:41:00,23.0,6.3,30.29,NE,45,1.1,-999.0,48,-99.99,,,0.00,Acu-Link.com,2013-11-25 07:41:00,
2013-11-25 02:56:00,23.0,5.8,30.28,East,90,0.0,-999.0,47,-99.99,,,0.00,Acu-Link.com,2013-11-25 07:56:00,
2013-11-25 03:12:00,23.0,7.2,30.29,WNW,292,0.0,-999.0,50,-99.99,,,0.00,Acu-Link.com,2013-11-25 08:12:00,
2013-11-25 03:27:00,23.0,7.6,30.29,NE,45,1.1,-999.0,51,-99.99,,,0.00,Acu-Link.com,2013-11-25 08:27:00,
2013-11-25 03:42:00,21.2,6.8,30.30,NE,45,0.0,-999.0,53,-99.99,,,0.00,Acu-Link.com,2013-11-25 08:42:00,
2013-11-25 03:57:00,21.2,6.4,30.30,NE,45,0.0,-999.0,52,-99.99,,,0.00,Acu-Link.com,2013-11-25 08:57:00,
2013-11-25 04:12:00,21.2,8.4,30.30,NNE,22,0.0,-999.0,57,-99.99,,,0.00,Acu-Link.com,2013-11-25 09:12:00,
2013-11-25 04:27:00,21.2,8.8,30.29,NNE,22,0.0,-999.0,58,-99.99,,,0.00,Acu-Link.com,2013-11-25 09:27:00,
2013-11-25 04:42:00,21.2,8.4,30.30,NNE,22,0.0,-999.0,57,-99.99,,,0.00,Acu-Link.com,2013-11-25 09:42:00,
2013-11-25 04:57:00,19.4,7.4,30.30,WNW,292,0.0,-999.0,59,-99.99,,,0.00,Acu-Link.com,2013-11-25 09:57:00,
2013-11-25 05:12:00,21.2,9.5,30.30,ESE,112,0.0,-999.0,60,-99.99,,,0.00,Acu-Link.com,2013-11-25 10:12:00,
2013-11-25 05:27:00,21.2,7.6,30.30,NNE,22,0.0,-999.0,55,-99.99,,,0.00,Acu-Link.com,2013-11-25 10:27:00,
2013-11-25 05:42:00,21.2,9.5,30.30,NNW,337,0.0,-999.0,60,-99.99,,,0.00,Acu-Link.com,2013-11-25 10:42:00,
2013-11-25 05:58:00,21.2,8.8,30.31,West,270,0.0,-999.0,58,-99.99,,,0.00,Acu-Link.com,2013-11-25 10:58:00,
2013-11-25 06:13:00,21.2,9.5,30.31,NNE,22,0.0,-999.0,60,-99.99,,,0.00,Acu-Link.com,2013-11-25 11:13:00,
2013-11-25 06:28:00,21.2,9.1,30.30,NNE,22,0.0,-999.0,59,-99.99,,,0.00,Acu-Link.com,2013-11-25 11:28:00,
2013-11-25 06:43:00,21.2,8.4,30.30,NNE,22,0.0,-999.0,57,-99.99,,,0.00,Acu-Link.com,2013-11-25 11:43:00,
2013-11-25 06:59:00,21.2,8.0,30.30,NNE,22,0.0,-999.0,56,-99.99,,,0.00,Acu-Link.com,2013-11-25 11:59:00,
2013-11-25 07:14:00,23.0,9.7,30.30,East,90,0.0,-999.0,56,-99.99,,,0.00,Acu-Link.com,2013-11-25 12:14:00,
2013-11-25 07:29:00,23.0,10.5,30.31,ENE,67,0.0,-999.0,58,-99.99,,,0.00,Acu-Link.com,2013-11-25 12:29:00,
2013-11-25 07:44:00,23.0,9.3,30.31,North,0,0.0,-999.0,55,-99.99,,,0.00,Acu-Link.com,2013-11-25 12:44:00,
2013-11-25 07:59:00,23.0,9.7,30.31,ENE,67,0.0,-999.0,56,-99.99,,,0.00,Acu-Link.com,2013-11-25 12:59:00,
2013-11-25 08:14:00,24.8,8.8,30.32,North,0,0.0,-999.0,50,-99.99,,,0.00,Acu-Link.com,2013-11-25 13:14:00,
2013-11-25 08:30:00,28.4,8.3,30.32,SE,135,2.0,-999.0,42,-99.99,,,0.00,Acu-Link.com,2013-11-25 13:30:00,
2013-11-25 08:45:00,28.4,6.6,30.32,SSE,157,2.0,-999.0,39,-99.99,,,0.00,Acu-Link.com,2013-11-25 13:45:00,
2013-11-25 09:00:00,28.4,6.1,30.33,ESE,112,2.0,-999.0,38,-99.99,,,0.00,Acu-Link.com,2013-11-25 14:00:00,
2013-11-25 09:15:00,30.2,7.7,30.33,NE,45,2.0,-999.0,38,-99.99,,,0.00,Acu-Link.com,2013-11-25 14:15:00,
2013-11-25 09:30:00,32.0,8.1,30.32,NE,45,2.7,-999.0,36,-99.99,,,0.00,Acu-Link.com,2013-11-25 14:30:00,
2013-11-25 09:46:00,32.0,6.8,30.32,ESE,112,2.0,-999.0,34,-99.99,,,0.00,Acu-Link.com,2013-11-25 14:46:00,
2013-11-25 10:01:00,33.8,9.7,30.33,South,180,2.7,-999.0,36,-99.99,,,0.00,Acu-Link.com,2013-11-25 15:01:00,
2013-11-25 10:16:00,33.8,8.4,30.32,East,90,2.7,-999.0,34,-99.99,,,0.00,Acu-Link.com,2013-11-25 15:16:00,
2013-11-25 10:31:00,33.8,7.8,30.32,South,180,4.0,-999.0,33,-99.99,,,0.00,Acu-Link.com,2013-11-25 15:31:00,
2013-11-25 10:46:00,35.6,8.7,30.32,South,180,1.1,-999.0,32,-99.99,,,0.00,Acu-Link.com,2013-11-25 15:46:00,
2013-11-25 11:16:00,35.6,8.0,30.30,South,180,2.0,-999.0,31,-99.99,,,0.00,Acu-Link.com,2013-11-25 16:16:00,
2013-11-25 11:32:00,35.6,6.5,30.29,SSE,157,4.0,-999.0,29,-99.99,,,0.00,Acu-Link.com,2013-11-25 16:32:00,
2013-11-25 11:47:00,35.6,5.8,30.27,SSE,157,4.0,-999.0,28,-99.99,,,0.00,Acu-Link.com,2013-11-25 16:47:00,
2013-11-25 12:02:00,37.4,3.9,30.26,NNE,22,1.1,-999.0,24,-99.99,,,0.00,Acu-Link.com,2013-11-25 17:02:00,
2013-11-25 12:17:00,39.2,5.5,30.25,SSW,202,3.6,-999.0,24,-99.99,,,0.00,Acu-Link.com,2013-11-25 17:17:00,
2013-11-25 12:32:00,39.2,6.4,30.25,South,180,4.0,-999.0,25,-99.99,,,0.00,Acu-Link.com,2013-11-25 17:32:00,
2013-11-25 12:48:00,41.0,8.8,30.24,SSW,202,4.7,-999.0,26,-99.99,,,0.00,Acu-Link.com,2013-11-25 17:48:00,
2013-11-25 13:03:00,41.0,9.6,30.23,SE,135,3.1,-999.0,27,-99.99,,,0.00,Acu-Link.com,2013-11-25 18:03:00,
2013-11-25 13:18:00,42.8,11.2,30.23,South,180,2.7,-999.0,27,-99.99,,,0.00,Acu-Link.com,2013-11-25 18:18:00,
2013-11-25 13:33:00,41.0,12.0,30.22,SSW,202,4.0,-999.0,30,-99.99,,,0.00,Acu-Link.com,2013-11-25 18:33:00,
2013-11-25 13:48:00,41.0,12.0,30.21,SSW,202,2.7,-999.0,30,-99.99,,,0.00,Acu-Link.com,2013-11-25 18:48:00,
2013-11-25 14:04:00,41.0,9.6,30.20,North,0,2.0,-999.0,27,-99.99,,,0.00,Acu-Link.com,2013-11-25 19:04:00,
2013-11-25 14:19:00,41.0,10.4,30.20,SSE,157,1.6,-999.0,28,-99.99,,,0.00,Acu-Link.com,2013-11-25 19:19:00,
2013-11-25 14:34:00,42.8,9.4,30.19,SW,225,2.0,-999.0,25,-99.99,,,0.00,Acu-Link.com,2013-11-25 19:34:00,
2013-11-25 14:49:00,41.0,10.4,30.20,South,180,3.1,-999.0,28,-99.99,,,0.00,Acu-Link.com,2013-11-25 19:49:00,
2013-11-25 15:04:00,41.0,3.0,30.19,South,180,2.7,-999.0,20,-99.99,,,0.00,Acu-Link.com,2013-11-25 20:04:00,
2013-11-25 15:19:00,42.8,9.4,30.19,NW,315,0.0,-999.0,25,-99.99,,,0.00,Acu-Link.com,2013-11-25 20:19:00,
2013-11-25 15:35:00,42.8,8.5,30.20,South,180,0.0,-999.0,24,-99.99,,,0.00,Acu-Link.com,2013-11-25 20:35:00,
2013-11-25 15:50:00,42.8,5.6,30.19,SSW,202,0.0,-999.0,21,-99.99,,,0.00,Acu-Link.com,2013-11-25 20:50:00,
2013-11-25 16:05:00,42.8,4.5,30.18,ESE,112,1.1,-999.0,20,-99.99,,,0.00,Acu-Link.com,2013-11-25 21:05:00,
2013-11-25 16:20:00,42.8,3.4,30.18,NNE,22,1.6,-999.0,19,-99.99,,,0.00,Acu-Link.com,2013-11-25 21:20:00,
2013-11-25 16:36:00,42.8,9.4,30.18,South,180,1.1,-999.0,25,-99.99,,,0.00,Acu-Link.com,2013-11-25 21:36:00,
2013-11-25 16:51:00,41.0,6.1,30.19,ENE,67,0.0,-999.0,23,-99.99,,,0.00,Acu-Link.com,2013-11-25 21:51:00,
2013-11-25 17:06:00,41.0,8.8,30.18,South,180,1.1,-999.0,26,-99.99,,,0.00,Acu-Link.com,2013-11-25 22:06:00,
2013-11-25 17:21:00,41.0,9.6,30.18,NE,45,1.1,-999.0,27,-99.99,,,0.00,Acu-Link.com,2013-11-25 22:21:00,
2013-11-25 17:37:00,39.2,6.4,30.17,East,90,2.0,-999.0,25,-99.99,,,0.00,Acu-Link.com,2013-11-25 22:37:00,
2013-11-25 17:52:00,39.2,9.6,30.17,ESE,112,1.6,-999.0,29,-99.99,,,0.00,Acu-Link.com,2013-11-25 22:52:00,
2013-11-25 18:07:00,39.2,8.9,30.18,SE,135,1.6,-999.0,28,-99.99,,,0.00,Acu-Link.com,2013-11-25 23:07:00,
2013-11-25 18:22:00,39.2,8.1,30.18,WNW,292,1.1,-999.0,27,-99.99,,,0.00,Acu-Link.com,2013-11-25 23:22:00,
2013-11-25 18:37:00,37.4,9.6,30.18,NE,45,0.0,-999.0,31,-99.99,,,0.00,Acu-Link.com,2013-11-25 23:37:00,
2013-11-25 18:53:00,37.4,8.8,30.18,NE,45,0.0,-999.0,30,-99.99,,,0.00,Acu-Link.com,2013-11-25 23:53:00,
2013-11-25 19:08:00,37.4,8.1,30.19,ESE,112,2.0,-999.0,29,-99.99,,,0.00,Acu-Link.com,2013-11-26 00:08:00,
2013-11-25 19:23:00,37.4,8.1,30.18,NE,45,0.0,-999.0,29,-99.99,,,0.00,Acu-Link.com,2013-11-26 00:23:00,
2013-11-25 19:38:00,37.4,9.6,30.19,ENE,67,0.0,-999.0,31,-99.99,,,0.00,Acu-Link.com,2013-11-26 00:38:00,
2013-11-25 19:53:00,37.4,8.1,30.19,NE,45,1.6,-999.0,29,-99.99,,,0.00,Acu-Link.com,2013-11-26 00:53:00,
2013-11-25 20:08:00,37.4,8.1,30.18,NNE,22,1.1,-999.0,29,-99.99,,,0.00,Acu-Link.com,2013-11-26 01:08:00,
2013-11-25 20:24:00,37.4,8.8,30.18,SE,135,0.0,-999.0,30,-99.99,,,0.00,Acu-Link.com,2013-11-26 01:24:00,
2013-11-25 20:39:00,37.4,9.6,30.19,East,90,1.6,-999.0,31,-99.99,,,0.00,Acu-Link.com,2013-11-26 01:39:00,
2013-11-25 20:54:00,37.4,11.6,30.17,NNE,22,0.0,-999.0,34,-99.99,,,0.00,Acu-Link.com,2013-11-26 01:54:00,
2013-11-25 21:09:00,37.4,9.6,30.15,ESE,112,2.0,-999.0,31,-99.99,,,0.00,Acu-Link.com,2013-11-26 02:09:00,
2013-11-25 21:25:00,37.4,10.3,30.15,NNE,22,1.1,-999.0,32,-99.99,,,0.00,Acu-Link.com,2013-11-26 02:25:00,
2013-11-25 21:40:00,37.4,11.0,30.14,SSE,157,0.0,-999.0,33,-99.99,,,0.00,Acu-Link.com,2013-11-26 02:40:00,
2013-11-25 21:55:00,37.4,9.6,30.15,SW,225,0.0,-999.0,31,-99.99,,,0.00,Acu-Link.com,2013-11-26 02:55:00,
2013-11-25 22:10:00,37.4,9.6,30.15,South,180,0.0,-999.0,31,-99.99,,,0.00,Acu-Link.com,2013-11-26 03:10:00,
2013-11-25 22:26:00,37.4,9.6,30.16,NNE,22,1.1,-999.0,31,-99.99,,,0.00,Acu-Link.com,2013-11-26 03:26:00,
2013-11-25 22:41:00,37.4,11.6,30.16,WNW,292,0.0,-999.0,34,-99.99,,,0.00,Acu-Link.com,2013-11-26 03:41:00,
2013-11-25 22:56:00,37.4,14.1,30.15,NNE,22,0.0,-999.0,38,-99.99,,,0.00,Acu-Link.com,2013-11-26 03:56:00,
2013-11-25 23:11:00,37.4,11.6,30.13,East,90,0.0,-999.0,34,-99.99,,,0.00,Acu-Link.com,2013-11-26 04:11:00,
2013-11-25 23:26:00,37.4,11.6,30.13,ESE,112,0.0,-999.0,34,-99.99,,,0.00,Acu-Link.com,2013-11-26 04:26:00,
2013-11-25 23:41:00,37.4,10.3,30.12,West,270,0.0,-999.0,32,-99.99,,,0.00,Acu-Link.com,2013-11-26 04:41:00,
2013-11-25 23:56:00,37.4,12.3,30.12,NE,45,2.0,-999.0,35,-99.99,,,0.00,Acu-Link.com,2013-11-26 04:56:00,